Location: Boissi�res
(45.2500°N, 2.3667°E)
Time: 19:27:28
(UTC+00:00)

SL-08 RB Rocket - Pass Details

Date: 03 March 2021
Orbit: 647 x 684 km, 97.8° (Epoch: 18 April)

Event Time Altitude Azimuth Distance (km) Brightness Sun altitude
Rises 18:49:50 0° 160° (SSE) 2,962 6.8 -13.0°
Reaches altitude 10° 18:52:01 10° 159° (SSE) 2,060 6.0 -13.4°
Maximum altitude 18:56:30 73° 75° (ENE) 693 3.6 -14.1°
Drops below altitude 10° 19:01:04 10° 351° (N) 2,099 6.5 -14.9°
Sets 19:03:20 0° 349° (N) 3,023 7.3 -15.3°
